,,PA_Meas_PMT16A,,PR_Meas_QMR101_102,,RH_Meas_QMH101,,SR_Meas_QMS101,,TA_Meas_QMH101,,GenWind,,GenWind,
time,status,PA,status,PR,status,RH,status,SR,status,TA,status,DirAvg,status,SpdAvg,
2014-10-05, 00:00:04,VALID,919.427,VALID,0,VALID,95.5671,VALID,0,VALID,19.3143,VALID,351,VALID,0,
2014-10-05, 00:01:04,VALID,919.447,VALID,0,VALID,95.5519,VALID,0,VALID,19.2918,VALID,348,VALID,0,
2014-10-05, 00:02:04,VALID,919.487,VALID,0,VALID,95.529,VALID,0,VALID,19.3533,VALID,348,VALID,0,
2014-10-05, 00:03:04,VALID,919.467,VALID,0,VALID,95.5138,VALID,0,VALID,19.3338,VALID,336,VALID,0,
2014-10-05, 00:04:04,VALID,919.482,VALID,0,VALID,95.5367,VALID,0,VALID,19.3533,VALID,336,VALID,0,
2014-10-05, 00:05:04,VALID,919.465,VALID,0,VALID,95.5595,VALID,0,VALID,19.3533,VALID,336,VALID,0,
2014-10-05, 00:06:04,VALID,919.486,VALID,0,VALID,95.5976,VALID,0,VALID,19.3533,VALID,346,VALID,0,
2014-10-05, 00:07:04,VALID,919.429,VALID,0,VALID,95.651,VALID,0,VALID,19.3128,VALID,346,VALID,0,
2014-10-05, 00:08:04,VALID,919.425,VALID,0,VALID,95.7425,VALID,0,VALID,19.2948,VALID,346,VALID,0,
2014-10-05, 00:09:04,VALID,919.441,VALID,0,VALID,95.834,VALID,0,VALID,19.2753,INVALID,360,VALID,0,
2014-10-05, 00:10:04,VALID,919.417,VALID,0,VALID,95.9331,VALID,0,VALID,19.2767,VALID,345,VALID,0,
2014-10-05, 00:11:04,VALID,919.441,VALID,0,VALID,96.0474,VALID,0,VALID,19.2153,VALID,345,VALID,0,
2014-10-05, 00:12:04,VALID,919.403,VALID,0,VALID,96.1236,VALID,0,VALID,19.2168,VALID,340,VALID,0,
2014-10-05, 00:13:04,VALID,919.402,VALID,0,VALID,96.1846,VALID,0,VALID,19.1973,VALID,333,VALID,0,
2014-10-05, 00:14:04,VALID,919.396,VALID,0,VALID,96.2533,VALID,0,VALID,19.1973,VALID,333,VALID,0,
2014-10-05, 00:15:04,VALID,919.34,VALID,0,VALID,96.3066,VALID,0,VALID,19.1568,VALID,333,VALID,0,
2014-10-05, 00:16:04,VALID,919.356,VALID,0,VALID,96.36,VALID,0,VALID,19.1568,VALID,333,VALID,0,
2014-10-05, 00:17:04,VALID,919.319,VALID,0,VALID,96.3905,VALID,0,VALID,19.1568,VALID,344,VALID,0,
2014-10-05, 00:18:04,VALID,919.385,VALID,0,VALID,96.3371,VALID,0,VALID,19.1778,VALID,354,VALID,0,
2014-10-05, 00:19:04,VALID,919.372,VALID,0,VALID,96.3524,VALID,0,VALID,19.1568,VALID,344,VALID,0,
2014-10-05, 00:20:04,VALID,919.343,VALID,0,VALID,96.3066,VALID,0,VALID,19.1973,VALID,345,VALID,0,
2014-10-05, 00:21:04,VALID,919.366,VALID,0,VALID,96.3066,VALID,0,VALID,19.2168,VALID,359,VALID,0,
2014-10-05, 00:22:04,VALID,919.378,VALID,0,VALID,96.2685,VALID,0,VALID,19.1973,VALID,5,VALID,0,
2014-10-05, 00:23:04,VALID,919.349,VALID,0,VALID,96.1923,VALID,0,VALID,19.1973,VALID,3,VALID,0,
2014-10-05, 00:24:04,VALID,919.335,VALID,0,VALID,96.0932,VALID,0,VALID,19.2377,VALID,15,VALID,1.49805,
2014-10-05, 00:25:04,VALID,919.302,VALID,0,VALID,95.9864,VALID,0,VALID,19.2153,VALID,5,VALID,0.0597656,
2014-10-05, 00:26:04,VALID,919.334,VALID,0,VALID,95.8492,VALID,0,VALID,19.2962,VALID,18,VALID,0.895703,
2014-10-05, 00:27:04,VALID,919.324,VALID,0,VALID,95.6815,VALID,0,VALID,19.2948,VALID,10,VALID,0.0472656,
2014-10-05, 00:28:04,VALID,919.284,VALID,0,VALID,95.4757,VALID,0,VALID,19.3143,VALID,10,VALID,1.05391,
2014-10-05, 00:29:04,VALID,919.299,VALID,0,VALID,95.2927,VALID,0,VALID,19.3547,VALID,351,VALID,0.620703,
2014-10-05, 00:30:04,VALID,919.306,VALID,0,VALID,95.0716,VALID,0,VALID,19.3518,VALID,324,VALID,0.416016,
2014-10-05, 00:31:04,VALID,919.307,VALID,0,VALID,94.7057,VALID,0,VALID,19.3923,VALID,317,VALID,0,
2014-10-05, 00:32:04,VALID,919.301,VALID,0,VALID,94.1416,VALID,0,VALID,19.4313,VALID,349,VALID,0,
2014-10-05, 00:33:04,VALID,919.32,VALID,0,VALID,93.707,VALID,0,VALID,19.4103,VALID,340,VALID,0,
2014-10-05, 00:34:04,VALID,919.262,VALID,0,VALID,93.5851,VALID,0,VALID,19.4508,VALID,346,VALID,0,
2014-10-05, 00:35:04,VALID,919.25,VALID,0,VALID,93.5088,VALID,0,VALID,19.4103,VALID,353,VALID,0,
2014-10-05, 00:36:04,VALID,919.236,VALID,0,VALID,93.181,VALID,0,VALID,19.4103,VALID,8,VALID,0.595703,
2014-10-05, 00:37:04,VALID,919.219,VALID,0,VALID,92.6321,VALID,0,VALID,19.4508,VALID,347,VALID,0.174219,
2014-10-05, 00:38:04,VALID,919.252,VALID,0,VALID,92.19,VALID,0,VALID,19.4898,VALID,356,VALID,0.009375,
2014-10-05, 00:39:04,VALID,919.243,VALID,0,VALID,91.9155,VALID,0,VALID,19.4883,VALID,359,VALID,0,
2014-10-05, 00:40:04,VALID,919.224,VALID,0,VALID,91.6563,VALID,0,VALID,19.5498,VALID,331,VALID,0,
2014-10-05, 00:41:04,VALID,919.222,VALID,0,VALID,91.5877,VALID,0,VALID,19.5888,VALID,330,VALID,0,
2014-10-05, 00:42:04,VALID,919.169,VALID,0,VALID,91.7021,VALID,0,VALID,19.5483,VALID,16,VALID,0.302344,
2014-10-05, 00:43:04,VALID,919.15,VALID,0,VALID,91.8164,VALID,0,VALID,19.5678,VALID,13,VALID,0.23125,
2014-10-05, 00:44:04,VALID,919.121,VALID,0,VALID,91.7554,VALID,0,VALID,19.5288,VALID,18,VALID,0.1375,
2014-10-05, 00:45:04,VALID,919.118,VALID,0,VALID,91.298,VALID,0,VALID,19.5093,VALID,12,VALID,1.1375,
2014-10-05, 00:46:04,VALID,919.085,VALID,0,VALID,91.016,VALID,0,VALID,19.5483,VALID,345,VALID,0,
2014-10-05, 00:47:04,VALID,919.027,VALID,0,VALID,90.9778,VALID,0,VALID,19.5483,VALID,5,VALID,0.358594,
2014-10-05, 00:48:04,VALID,919.01,VALID,0,VALID,90.6348,VALID,0,VALID,19.5678,VALID,9,VALID,0.664844,
2014-10-05, 00:49:04,VALID,918.962,VALID,0,VALID,90.5662,VALID,0,VALID,19.5873,VALID,24,VALID,2.53008,
2014-10-05, 00:50:04,VALID,918.983,VALID,0,VALID,90.5281,VALID,0,VALID,19.6278,VALID,9,VALID,1.98164,
2014-10-05, 00:51:04,VALID,919,VALID,0,VALID,90.5281,VALID,0,VALID,19.6068,VALID,346,VALID,0.841797,
2014-10-05, 00:52:04,VALID,918.998,VALID,0,VALID,90.6195,VALID,0,VALID,19.5648,VALID,354,VALID,0.586719,
2014-10-05, 00:53:04,VALID,919.005,VALID,0,VALID,90.6272,VALID,0,VALID,19.6068,VALID,4,VALID,1.19023,
2014-10-05, 00:54:04,VALID,918.989,VALID,0,VALID,90.7187,VALID,0,VALID,19.6068,VALID,352,VALID,0.0472656,
2014-10-05, 00:55:04,VALID,918.976,VALID,0,VALID,90.9016,VALID,0,VALID,19.5663,VALID,3,VALID,1.23906,
2014-10-05, 00:56:04,VALID,919.006,VALID,0,VALID,91.0465,VALID,0,VALID,19.5678,VALID,346,VALID,0.0746094,
2014-10-05, 00:57:04,VALID,919.007,VALID,0,VALID,91.237,VALID,0,VALID,19.5678,VALID,4,VALID,0.0882813,
2014-10-05, 00:58:04,VALID,918.987,VALID,0,VALID,91.3209,VALID,0,VALID,19.4883,VALID,334,VALID,0.144141,
2014-10-05, 00:59:04,VALID,919.012,VALID,0,VALID,91.4048,VALID,0,VALID,19.5093,VALID,351,VALID,0,
2014-10-05, 01:00:04,VALID,919.001,VALID,0,VALID,91.298,VALID,0,VALID,19.4898,VALID,6,VALID,0.499609,
2014-10-05, 01:01:04,VALID,919.029,VALID,0,VALID,91.2523,VALID,0,VALID,19.4898,VALID,344,VALID,0.230859,
2014-10-05, 01:02:04,VALID,918.991,VALID,0,VALID,91.2523,VALID,0,VALID,19.4898,VALID,3,VALID,0,
2014-10-05, 01:03:04,VALID,918.987,VALID,0,VALID,91.237,VALID,0,VALID,19.4688,VALID,355,VALID,0,
2014-10-05, 01:04:04,VALID,919.019,VALID,0,VALID,91.2294,VALID,0,VALID,19.4898,VALID,312,VALID,0.00429688,
2014-10-05, 01:05:04,VALID,918.968,VALID,0,VALID,91.2599,VALID,0,VALID,19.4898,VALID,315,VALID,0,
2014-10-05, 01:06:04,VALID,918.977,VALID,0,VALID,91.3743,VALID,0,VALID,19.5093,VALID,360,VALID,0,
2014-10-05, 01:07:04,VALID,918.934,VALID,0,VALID,91.5191,VALID,0,VALID,19.4703,VALID,340,VALID,0,
2014-10-05, 01:08:04,VALID,918.949,VALID,0,VALID,91.3057,VALID,0,VALID,19.4703,VALID,334,VALID,0,
2014-10-05, 01:09:04,VALID,918.919,VALID,0,VALID,91.2294,VALID,0,VALID,19.4493,VALID,349,VALID,0,
2014-10-05, 01:10:04,VALID,918.867,VALID,0,VALID,91.1151,VALID,0,VALID,19.4703,VALID,8,VALID,0.891406,
2014-10-05, 01:11:04,VALID,918.86,VALID,0,VALID,91.1532,VALID,0,VALID,19.4703,VALID,10,VALID,0.349609,
2014-10-05, 01:12:04,VALID,918.914,VALID,0,VALID,91.2828,VALID,0,VALID,19.4508,VALID,336,VALID,0.511719,
2014-10-05, 01:13:04,VALID,918.89,VALID,0,VALID,91.3514,VALID,0,VALID,19.4313,VALID,13,VALID,0,
2014-10-05, 01:14:04,VALID,918.886,VALID,0,VALID,91.5877,VALID,0,VALID,19.4118,VALID,12,VALID,0,
2014-10-05, 01:15:04,VALID,918.924,VALID,0,VALID,92.007,VALID,0,VALID,19.3923,VALID,12,VALID,0,
2014-10-05, 01:16:04,VALID,918.907,VALID,0,VALID,92.4263,VALID,0,VALID,19.3728,VALID,12,VALID,0,
2014-10-05, 01:17:04,VALID,918.866,VALID,0,VALID,92.9371,VALID,0,VALID,19.3323,VALID,12,VALID,0,
2014-10-05, 01:18:04,VALID,918.829,VALID,0,VALID,93.2344,VALID,0,VALID,19.2948,VALID,3,VALID,0,
2014-10-05, 01:19:04,VALID,918.847,VALID,0,VALID,93.364,VALID,0,VALID,19.2572,VALID,316,VALID,0,
2014-10-05, 01:20:04,VALID,918.844,VALID,0,VALID,93.3564,VALID,0,VALID,19.2153,VALID,330,VALID,0,
2014-10-05, 01:21:04,VALID,918.814,VALID,0,VALID,93.6384,VALID,0,VALID,19.2363,VALID,332,VALID,0,
2014-10-05, 01:22:04,VALID,918.781,VALID,0,VALID,93.6537,VALID,0,VALID,19.2168,VALID,347,VALID,1.48164,
2014-10-05, 01:23:04,VALID,918.767,VALID,0,VALID,93.6765,VALID,0,VALID,19.1973,VALID,353,VALID,0,
2014-10-05, 01:24:04,VALID,918.783,VALID,0,VALID,93.7299,VALID,0,VALID,19.1778,VALID,353,VALID,0,
2014-10-05, 01:25:04,VALID,918.746,VALID,0,VALID,93.9129,VALID,0,VALID,19.1973,VALID,7,VALID,0,
2014-10-05, 01:26:04,VALID,918.699,VALID,0,VALID,94.2559,VALID,0,VALID,19.1973,VALID,353,VALID,0.117578,
2014-10-05, 01:27:04,VALID,918.728,VALID,0,VALID,94.2178,VALID,0,VALID,19.1373,VALID,348,VALID,0.174609,
2014-10-05, 01:28:04,VALID,918.665,VALID,0,VALID,93.7451,VALID,0,VALID,19.1388,VALID,306,VALID,0,
2014-10-05, 01:29:04,VALID,918.677,VALID,0,VALID,93.4859,VALID,0,VALID,19.1583,VALID,30,VALID,0,
2014-10-05, 01:30:04,VALID,918.598,VALID,0,VALID,93.3259,VALID,0,VALID,19.1973,VALID,28,VALID,0,
2014-10-05, 01:31:04,VALID,918.56,VALID,0,VALID,93.2344,VALID,0,VALID,19.1973,VALID,10,VALID,0.91875,
2014-10-05, 01:32:04,VALID,918.594,VALID,0,VALID,93.2115,VALID,0,VALID,19.1973,VALID,30,VALID,0,
2014-10-05, 01:33:04,VALID,918.554,VALID,0,VALID,93.2496,VALID,0,VALID,19.1763,VALID,36,VALID,0,
2014-10-05, 01:34:04,VALID,918.574,VALID,0,VALID,93.0972,VALID,0,VALID,19.1778,VALID,42,VALID,0,
2014-10-05, 01:35:04,VALID,918.56,VALID,0,VALID,92.8761,VALID,0,VALID,19.1583,VALID,40,VALID,0,
2014-10-05, 01:36:04,VALID,918.563,VALID,0,VALID,92.5559,VALID,0,VALID,19.1388,VALID,21,VALID,0,
2014-10-05, 01:37:04,VALID,918.56,VALID,0,VALID,92.3272,VALID,0,VALID,19.1388,VALID,12,VALID,0,
2014-10-05, 01:38:04,VALID,918.551,VALID,0,VALID,92.1976,VALID,0,VALID,19.1388,VALID,26,VALID,0,
2014-10-05, 01:39:04,VALID,918.565,VALID,0,VALID,92.0375,VALID,0,VALID,19.1583,VALID,7,VALID,0,
2014-10-05, 01:40:04,VALID,918.532,VALID,0,VALID,91.8088,VALID,0,VALID,19.1583,VALID,357,VALID,0.426953,
2014-10-05, 01:41:04,VALID,918.522,VALID,0,VALID,91.7097,VALID,0,VALID,19.1388,VALID,13,VALID,0,
2014-10-05, 01:42:04,VALID,918.523,VALID,0,VALID,91.5191,VALID,0,VALID,19.1388,VALID,22,VALID,0.241406,
2014-10-05, 01:43:04,VALID,918.497,VALID,0,VALID,91.3743,VALID,0,VALID,19.1583,VALID,359,VALID,0,
2014-10-05, 01:44:04,VALID,918.505,VALID,0,VALID,91.1456,VALID,0,VALID,19.1388,VALID,354,VALID,0,
2014-10-05, 01:45:04,VALID,918.497,VALID,0,VALID,90.9778,VALID,0,VALID,19.1388,VALID,359,VALID,0,
2014-10-05, 01:46:04,VALID,918.495,VALID,0,VALID,90.8787,VALID,0,VALID,19.1388,VALID,15,VALID,0.962109,
2014-10-05, 01:47:04,VALID,918.497,VALID,0,VALID,90.7644,VALID,0,VALID,19.1583,VALID,10,VALID,0.321094,
2014-10-05, 01:48:04,VALID,918.493,VALID,0,VALID,90.8483,VALID,0,VALID,19.1388,VALID,3,VALID,0.0757812,
2014-10-05, 01:49:04,VALID,918.454,VALID,0,VALID,90.0021,VALID,0,VALID,19.1193,VALID,346,VALID,1.15352,
2014-10-05, 01:50:04,VALID,918.442,VALID,0,VALID,89.0339,VALID,0,VALID,19.1778,VALID,15,VALID,0.669531,
2014-10-05, 01:51:04,VALID,918.445,VALID,0,VALID,88.2715,VALID,0,VALID,19.2363,VALID,3,VALID,2.22148,
2014-10-05, 01:52:04,VALID,918.49,VALID,0,VALID,88.363,VALID,0,VALID,19.2948,VALID,14,VALID,0.015625,
2014-10-05, 01:53:04,VALID,918.488,VALID,0,VALID,88.3859,VALID,0,VALID,19.3143,VALID,3,VALID,0.279687,
2014-10-05, 01:54:04,VALID,918.43,VALID,0,VALID,88.6222,VALID,0,VALID,19.2933,VALID,15,VALID,0.350391,
2014-10-05, 01:55:04,VALID,918.462,VALID,0,VALID,89.1101,VALID,0,VALID,19.2753,VALID,359,VALID,0,
2014-10-05, 01:56:04,VALID,918.438,VALID,0,VALID,89.4227,VALID,0,VALID,19.2363,VALID,26,VALID,0.838281,
2014-10-05, 01:57:04,VALID,918.425,VALID,0,VALID,89.4227,VALID,0,VALID,19.2168,VALID,354,VALID,0.902344,
2014-10-05, 01:58:04,VALID,918.415,VALID,0,VALID,89.5142,VALID,0,VALID,19.1973,VALID,1,VALID,1.21406,
2014-10-05, 01:59:04,VALID,918.412,VALID,0,VALID,89.8038,VALID,0,VALID,19.1973,VALID,3,VALID,0.173438,
2014-10-05, 02:00:04,VALID,918.389,VALID,0,VALID,90.1774,VALID,0,VALID,19.1973,VALID,16,VALID,0.566016,
2014-10-05, 02:01:04,VALID,918.393,VALID,0,VALID,90.4823,VALID,0,VALID,19.1778,VALID,11,VALID,0.807031,
2014-10-05, 02:02:04,VALID,918.404,VALID,0,VALID,90.6119,VALID,0,VALID,19.1778,VALID,352,VALID,0.101953,
2014-10-05, 02:03:04,VALID,918.373,VALID,0,VALID,90.8178,VALID,0,VALID,19.1778,VALID,15,VALID,0.00117188,
2014-10-05, 02:04:04,VALID,918.37,VALID,0,VALID,91.0236,VALID,0,VALID,19.1583,VALID,2,VALID,0.992969,
2014-10-05, 02:05:04,VALID,918.368,VALID,0,VALID,90.9931,VALID,0,VALID,19.1388,VALID,336,VALID,0.0890625,
2014-10-05, 02:06:04,VALID,918.379,VALID,0,VALID,91.1074,VALID,0,VALID,19.1583,VALID,339,VALID,0.0253906,
2014-10-05, 02:07:04,VALID,918.384,VALID,0,VALID,91.0312,VALID,0,VALID,19.1178,VALID,349,VALID,0.137891,
2014-10-05, 02:08:04,VALID,918.352,VALID,0,VALID,90.9016,VALID,0,VALID,19.1193,VALID,5,VALID,1.92148,
2014-10-05, 02:09:04,VALID,918.351,VALID,0,VALID,90.8406,VALID,0,VALID,19.1373,VALID,13,VALID,1.29141,
2014-10-05, 02:10:04,VALID,918.373,VALID,0,VALID,90.4061,VALID,0,VALID,19.1388,VALID,353,VALID,0.281641,
2014-10-05, 02:11:04,VALID,918.344,VALID,0,VALID,89.2854,VALID,0,VALID,19.1778,VALID,14,VALID,1.22031,
2014-10-05, 02:12:04,VALID,918.35,VALID,0,VALID,89.7429,VALID,0,VALID,19.2168,VALID,16,VALID,0.841016,
2014-10-05, 02:13:04,VALID,918.321,VALID,0,VALID,90.124,VALID,0,VALID,19.2168,VALID,17,VALID,0.819922,
2014-10-05, 02:14:04,VALID,918.357,VALID,0,VALID,90.5357,VALID,0,VALID,19.2168,VALID,354,VALID,0.391016,
2014-10-05, 02:15:04,VALID,918.382,VALID,0,VALID,90.4366,VALID,0,VALID,19.1583,VALID,337,VALID,0,
2014-10-05, 02:16:04,VALID,918.398,VALID,0,VALID,90.5662,VALID,0,VALID,19.1583,VALID,336,VALID,0,
2014-10-05, 02:17:04,VALID,918.396,VALID,0,VALID,91.077,VALID,0,VALID,19.1373,VALID,333,VALID,0.00078125,
2014-10-05, 02:18:04,VALID,918.405,VALID,0,VALID,91.5039,VALID,0,VALID,19.1193,VALID,320,VALID,0,
2014-10-05, 02:19:04,VALID,918.387,VALID,0,VALID,91.1151,VALID,0,VALID,19.0413,VALID,347,VALID,0.378125,
2014-10-05, 02:20:04,VALID,918.416,VALID,0,VALID,90.8635,VALID,0,VALID,19.0413,VALID,357,VALID,0,
2014-10-05, 02:21:04,VALID,918.402,VALID,0,VALID,90.9855,VALID,0,VALID,19.0608,VALID,348,VALID,0,
2014-10-05, 02:22:04,VALID,918.378,VALID,0,VALID,91.1989,VALID,0,VALID,19.0413,VALID,6,VALID,0,
2014-10-05, 02:23:04,VALID,918.375,VALID,0,VALID,91.5344,VALID,0,VALID,19.0413,VALID,1,VALID,0.151562,
2014-10-05, 02:24:04,VALID,918.375,VALID,0,VALID,91.2523,VALID,0,VALID,19.0232,VALID,351,VALID,0,
2014-10-05, 02:25:04,VALID,918.342,VALID,0,VALID,91.0922,VALID,0,VALID,19.0023,VALID,13,VALID,0,
2014-10-05, 02:26:04,VALID,918.354,VALID,0,VALID,91.1379,VALID,0,VALID,19.0023,VALID,1,VALID,0,
2014-10-05, 02:27:04,VALID,918.326,VALID,0,VALID,91.664,VALID,0,VALID,19.0023,VALID,1,VALID,0,
2014-10-05, 02:28:04,VALID,918.307,VALID,0,VALID,92.0375,VALID,0,VALID,19.0232,VALID,12,VALID,0,
2014-10-05, 02:29:04,VALID,918.28,VALID,0,VALID,91.1608,VALID,0,VALID,18.9243,VALID,342,VALID,0.246484,
2014-10-05, 02:30:04,VALID,918.28,VALID,0,VALID,90.5891,VALID,0,VALID,18.9633,VALID,286,VALID,0,
2014-10-05, 02:31:04,VALID,918.232,VALID,0,VALID,90.3375,VALID,0,VALID,19.0023,VALID,314,VALID,0,
2014-10-05, 02:32:04,VALID,918.228,VALID,0,VALID,90.6805,VALID,0,VALID,19.0008,VALID,347,VALID,0,
2014-10-05, 02:33:04,VALID,918.198,VALID,0,VALID,91.1684,VALID,0,VALID,19.0218,VALID,11,VALID,0,
2014-10-05, 02:34:04,VALID,918.193,VALID,0,VALID,91.8698,VALID,0,VALID,19.0218,VALID,10,VALID,0,
2014-10-05, 02:35:04,VALID,918.182,VALID,0,VALID,92.4644,VALID,0,VALID,18.9633,VALID,16,VALID,0,
2014-10-05, 02:36:04,VALID,918.172,VALID,0,VALID,92.8608,VALID,0,VALID,18.9243,VALID,21,VALID,0,
2014-10-05, 02:37:04,VALID,918.157,VALID,0,VALID,93.0895,VALID,0,VALID,18.9048,VALID,18,VALID,0.0589844,
2014-10-05, 02:38:04,VALID,918.168,VALID,0,VALID,93.364,VALID,0,VALID,18.8853,VALID,17,VALID,0,
2014-10-05, 02:39:04,VALID,918.171,VALID,0,VALID,93.5698,VALID,0,VALID,18.8658,VALID,28,VALID,0,
2014-10-05, 02:40:04,VALID,918.167,VALID,0,VALID,93.9891,VALID,0,VALID,18.8059,VALID,11,VALID,0,
2014-10-05, 02:41:04,VALID,918.166,VALID,0,VALID,94.6828,VALID,0,VALID,18.8268,VALID,38,VALID,0,
2014-10-05, 02:42:04,VALID,918.208,VALID,0,VALID,94.5304,VALID,0,VALID,18.7683,VALID,36,VALID,0,
2014-10-05, 02:43:04,VALID,918.142,VALID,0,VALID,94.5304,VALID,0,VALID,18.7683,VALID,38,VALID,0,
2014-10-05, 02:44:04,VALID,918.17,VALID,0,VALID,94.1339,VALID,0,VALID,18.7488,VALID,30,VALID,0,
2014-10-05, 02:45:04,VALID,918.156,VALID,0,VALID,94.1111,VALID,0,VALID,18.7488,VALID,26,VALID,0,
2014-10-05, 02:46:04,VALID,918.152,VALID,0,VALID,93.0514,VALID,0,VALID,18.7308,VALID,12,VALID,0,
2014-10-05, 02:47:04,VALID,918.162,VALID,0,VALID,91.9841,VALID,0,VALID,18.7293,VALID,11,VALID,0,
2014-10-05, 02:48:04,VALID,918.137,VALID,0,VALID,90.9778,VALID,0,VALID,18.8073,VALID,294,VALID,0,
2014-10-05, 02:49:04,VALID,918.132,VALID,0,VALID,90.5281,VALID,0,VALID,18.8853,VALID,296,VALID,0,
2014-10-05, 02:50:04,VALID,918.133,VALID,0,VALID,90.5509,VALID,0,VALID,18.9243,VALID,6,VALID,0,
2014-10-05, 02:51:04,VALID,918.099,VALID,0,VALID,90.4213,VALID,0,VALID,18.9243,VALID,6,VALID,0,
2014-10-05, 02:52:04,VALID,918.081,VALID,0,VALID,90.2384,VALID,0,VALID,18.9243,VALID,6,VALID,0,
2014-10-05, 02:53:04,VALID,918.07,VALID,0,VALID,89.8038,VALID,0,VALID,18.9452,VALID,324,VALID,0,
2014-10-05, 02:54:04,VALID,918.069,VALID,0,VALID,89.2854,VALID,0,VALID,18.9438,VALID,15,VALID,0,
2014-10-05, 02:55:04,VALID,918.065,VALID,0,VALID,89.3464,VALID,0,VALID,18.9633,VALID,15,VALID,0,
2014-10-05, 02:56:04,VALID,918.007,VALID,0,VALID,89.2397,VALID,0,VALID,18.9633,VALID,15,VALID,0,
2014-10-05, 02:57:04,VALID,917.972,VALID,0,VALID,88.7899,VALID,0,VALID,18.9633,VALID,34,VALID,0.329688,
2014-10-05, 02:58:04,VALID,917.985,VALID,0,VALID,88.2258,VALID,0,VALID,18.9842,VALID,18,VALID,0.296094,
2014-10-05, 02:59:04,VALID,917.996,VALID,0,VALID,88.0657,VALID,0,VALID,18.9828,VALID,18,VALID,0.0582031,
2014-10-05, 03:00:04,VALID,917.986,VALID,0,VALID,87.7684,VALID,0,VALID,19.0218,VALID,31,VALID,0,
2014-10-05, 03:01:04,VALID,917.972,VALID,0,VALID,87.7684,VALID,0,VALID,19.0413,VALID,26,VALID,0,
2014-10-05, 03:02:04,VALID,917.988,VALID,0,VALID,87.2881,VALID,0,VALID,19.0413,VALID,14,VALID,0,
2014-10-05, 03:03:04,VALID,917.967,VALID,0,VALID,87.4482,VALID,0,VALID,19.0608,VALID,12,VALID,0,
2014-10-05, 03:04:04,VALID,917.963,VALID,0,VALID,87.6617,VALID,0,VALID,19.0608,VALID,13,VALID,0,
2014-10-05, 03:05:04,VALID,917.918,VALID,0,VALID,88.0962,VALID,0,VALID,19.0413,VALID,29,VALID,0,
2014-10-05, 03:06:04,VALID,917.871,VALID,0,VALID,87.9513,VALID,0,VALID,18.9633,VALID,37,VALID,1.69336,
2014-10-05, 03:07:04,VALID,917.854,VALID,0,VALID,88.668,VALID,0,VALID,18.9619,VALID,42,VALID,2.00664,
2014-10-05, 03:08:04,VALID,917.867,VALID,0,VALID,88.7366,VALID,0,VALID,18.9633,VALID,31,VALID,0.890625,
2014-10-05, 03:09:04,VALID,917.828,VALID,0,VALID,88.4926,VALID,0,VALID,18.9633,VALID,15,VALID,0.0414063,
2014-10-05, 03:10:04,VALID,917.842,VALID,0,VALID,87.9513,VALID,0,VALID,18.9633,VALID,10,VALID,0,
2014-10-05, 03:11:04,VALID,917.798,VALID,0,VALID,87.4253,VALID,0,VALID,18.9828,VALID,9,VALID,0,
2014-10-05, 03:12:04,VALID,917.809,VALID,0,VALID,86.7773,VALID,0,VALID,19.0413,VALID,12,VALID,0,
2014-10-05, 03:13:04,VALID,917.798,VALID,0,VALID,87.1433,VALID,0,VALID,19.0998,VALID,28,VALID,0,
2014-10-05, 03:14:04,VALID,917.792,VALID,0,VALID,87.5092,VALID,0,VALID,19.0998,VALID,14,VALID,0,
2014-10-05, 03:15:04,VALID,917.794,VALID,0,VALID,87.654,VALID,0,VALID,19.0803,VALID,3,VALID,0,
2014-10-05, 03:16:04,VALID,917.767,VALID,0,VALID,88.2715,VALID,0,VALID,19.0608,VALID,3,VALID,0,
2014-10-05, 03:17:04,VALID,917.767,VALID,0,VALID,87.9742,VALID,0,VALID,19.0218,VALID,3,VALID,0,
2014-10-05, 03:18:04,VALID,917.735,VALID,0,VALID,87.5244,VALID,0,VALID,19.0023,VALID,3,VALID,0,
2014-10-05, 03:19:04,VALID,917.753,VALID,0,VALID,87.6998,VALID,0,VALID,19.0413,VALID,20,VALID,0,
2014-10-05, 03:20:04,VALID,917.721,VALID,0,VALID,87.4787,VALID,0,VALID,19.0608,VALID,22,VALID,0,
2014-10-05, 03:21:04,VALID,917.747,VALID,0,VALID,87.4177,VALID,0,VALID,19.0413,VALID,17,VALID,0,
2014-10-05, 03:22:04,VALID,917.757,VALID,0,VALID,87.4253,VALID,0,VALID,19.0413,VALID,14,VALID,0.00429688,
2014-10-05, 03:23:04,VALID,917.753,VALID,0,VALID,87.3262,VALID,0,VALID,19.0413,VALID,19,VALID,0,
2014-10-05, 03:24:04,VALID,917.716,VALID,0,VALID,87.7989,VALID,0,VALID,19.0413,VALID,23,VALID,0,
2014-10-05, 03:25:04,VALID,917.755,VALID,0,VALID,87.7913,VALID,0,VALID,19.0218,VALID,18,VALID,0,
2014-10-05, 03:26:04,VALID,917.729,VALID,0,VALID,88.0123,VALID,0,VALID,19.0023,VALID,1,VALID,0,
2014-10-05, 03:27:04,VALID,917.745,VALID,0,VALID,87.9132,VALID,0,VALID,18.9633,VALID,2,VALID,0,
2014-10-05, 03:28:04,VALID,917.729,VALID,0,VALID,87.4863,VALID,0,VALID,18.9633,VALID,16,VALID,0,
2014-10-05, 03:29:04,VALID,917.716,VALID,0,VALID,87.959,VALID,0,VALID,18.9828,VALID,16,VALID,0,
2014-10-05, 03:30:04,VALID,917.696,VALID,0,VALID,87.9209,VALID,0,VALID,18.9633,VALID,14,VALID,0,
2014-10-05, 03:31:04,VALID,917.674,VALID,0,VALID,87.6845,VALID,0,VALID,18.9633,VALID,19,VALID,0,
2014-10-05, 03:32:04,VALID,917.703,VALID,0,VALID,87.5626,VALID,0,VALID,18.9438,VALID,33,VALID,0,
2014-10-05, 03:33:04,VALID,917.688,VALID,0,VALID,87.9361,VALID,0,VALID,18.9438,VALID,24,VALID,0,
2014-10-05, 03:34:04,VALID,917.703,VALID,0,VALID,88.0581,VALID,0,VALID,18.9243,VALID,24,VALID,0,
2014-10-05, 03:35:04,VALID,917.684,VALID,0,VALID,87.7379,VALID,0,VALID,18.8839,VALID,24,VALID,0,
2014-10-05, 03:36:04,VALID,917.679,VALID,0,VALID,87.8522,VALID,0,VALID,18.9048,VALID,24,VALID,0,
2014-10-05, 03:37:04,VALID,917.665,VALID,0,VALID,88.241,VALID,0,VALID,18.9048,VALID,24,VALID,0,
2014-10-05, 03:38:04,VALID,917.681,VALID,0,VALID,88.7823,VALID,0,VALID,18.8658,VALID,24,VALID,0,
2014-10-05, 03:39:04,VALID,917.66,VALID,0,VALID,88.424,VALID,0,VALID,18.8073,VALID,33,VALID,0,
2014-10-05, 03:40:04,VALID,917.651,VALID,0,VALID,88.6451,VALID,0,VALID,18.8073,VALID,33,VALID,0,
2014-10-05, 03:41:04,VALID,917.608,VALID,0,VALID,88.485,VALID,0,VALID,18.7878,VALID,33,VALID,0,
2014-10-05, 03:42:04,VALID,917.635,VALID,0,VALID,88.2563,VALID,0,VALID,18.7683,VALID,33,VALID,0,
2014-10-05, 03:43:04,VALID,917.591,VALID,0,VALID,88.1496,VALID,0,VALID,18.7892,VALID,34,VALID,0,
2014-10-05, 03:44:04,VALID,917.597,VALID,0,VALID,88.6146,VALID,0,VALID,18.7878,VALID,33,VALID,0,
2014-10-05, 03:45:04,VALID,917.593,VALID,0,VALID,88.3859,VALID,0,VALID,18.7683,VALID,33,VALID,0,
2014-10-05, 03:46:04,VALID,917.584,VALID,0,VALID,88.2258,VALID,0,VALID,18.7892,VALID,33,VALID,0,
2014-10-05, 03:47:04,VALID,917.584,VALID,0,VALID,88.4316,VALID,0,VALID,18.7878,VALID,33,VALID,0,
2014-10-05, 03:48:04,VALID,917.565,VALID,0,VALID,88.424,VALID,0,VALID,18.7683,VALID,45,VALID,0,
2014-10-05, 03:49:04,VALID,917.545,VALID,0,VALID,88.4164,VALID,0,VALID,18.7878,VALID,45,VALID,0,
2014-10-05, 03:50:04,VALID,917.539,VALID,0,VALID,88.5155,VALID,0,VALID,18.7878,VALID,45,VALID,0,
2014-10-05, 03:51:04,VALID,917.533,VALID,0,VALID,88.485,VALID,0,VALID,18.7878,VALID,45,VALID,0,
2014-10-05, 03:52:04,VALID,917.52,VALID,0,VALID,87.7684,VALID,0,VALID,18.7683,VALID,45,VALID,0,
2014-10-05, 03:53:04,VALID,917.521,VALID,0,VALID,87.8904,VALID,0,VALID,18.8073,VALID,45,VALID,0,
2014-10-05, 03:54:04,VALID,917.517,VALID,0,VALID,88.0047,VALID,0,VALID,18.8073,VALID,45,VALID,0,
2014-10-05, 03:55:04,VALID,917.509,VALID,0,VALID,88.607,VALID,0,VALID,18.7878,VALID,45,VALID,0,
2014-10-05, 03:56:04,VALID,917.537,VALID,0,VALID,88.302,VALID,0,VALID,18.7488,VALID,45,VALID,0,